Date String (YYYY-MM-DD hh:mm:ss) UTC,Instrument flags,Ambient pressure (hPa),Sample flow (lpm),Bypass flow (lpm),Sample temperature (°C),Ambient temperature (°C),ASC tube jacket temperature (°C),LED temperature (°C),Box temperature (°C),Sample RH (%),Span deviation,Mass concentration (μg/m³),Mass concentration (μg/m³),Mass concentration (μg/m³)
DateTimeUTC,F1_M11,P_M11,Q1_M11,Q2_M11,T1_M11,T2_M11,T3_M11,T4_M11,T5_M11,U1_M11,ZSPAN_M11,X0_M11,X2_M11,X1_M11
2022-05-18 20:00:00,,0825.2,4.99,0.00,29.4,28.2,00.0,38.2,31.3,16.2,0000.0,0008.91,0003.78,0002.85
2022-05-18 20:01:00,,0825.1,4.99,0.00,29.4,28.3,00.0,38.2,31.3,16.1,0000.0,0008.91,0003.79,0002.83
2022-05-18 20:02:00,,0825.1,5.01,0.00,29.4,28.5,00.0,38.2,31.4,16.0,0000.0,0009.12,0003.80,0002.82
2022-05-18 20:03:00,,0825.1,5.00,0.00,29.5,28.6,00.0,38.3,31.4,16.1,0000.0,0009.26,0003.79,0002.82
2022-05-18 20:04:00,,0825.0,5.01,0.00,29.5,28.7,00.0,38.3,31.5,16.3,0000.0,0010.11,0003.81,0002.78
2022-05-18 20:05:00,,0824.9,5.00,0.00,29.6,28.7,00.0,38.3,31.5,16.0,0000.0,0010.62,0003.78,0002.76
2022-05-18 20:06:00,,0824.9,4.99,0.00,29.5,28.0,00.0,38.3,31.3,16.2,0000.0,0010.65,0003.81,0002.77
2022-05-18 20:07:00,,0825.0,5.00,0.00,29.4,27.2,00.0,38.2,31.0,16.4,0000.0,0010.20,0003.82,0002.79
2022-05-18 20:08:00,,0825.0,5.00,0.00,29.4,27.0,00.0,38.2,31.0,16.4,0000.0,0010.32,0003.85,0002.81
2022-05-18 20:09:00,,0824.9,5.00,0.00,29.3,27.1,00.0,38.2,31.0,16.4,0000.0,0010.36,0003.87,0002.82
2022-05-18 20:10:00,,0824.9,5.01,0.00,29.3,27.2,00.0,38.2,31.0,15.8,0000.0,0010.36,0003.85,0002.81
2022-05-18 20:11:00,,0824.9,4.99,0.00,29.3,27.4,00.0,38.2,31.1,15.3,0000.0,0010.33,0003.83,0002.81
2022-05-18 20:12:00,,0824.9,4.99,0.00,29.3,27.6,00.0,38.2,31.1,15.0,0000.0,0010.52,0003.85,0002.80
2022-05-18 20:13:00,,0824.9,5.00,0.00,29.3,27.8,00.0,38.2,31.2,13.4,0000.0,0016.60,0003.97,0002.79
2022-05-18 20:14:00,,0824.9,5.00,0.00,29.3,28.0,00.0,38.2,31.2,13.3,0000.0,0022.21,0004.04,0002.76
2022-05-18 20:15:00,,0824.9,5.00,0.00,29.4,28.2,00.0,38.2,31.3,13.8,0000.0,0021.81,0004.00,0002.72
2022-05-18 20:16:00,,0824.7,4.99,0.00,29.4,28.4,00.0,38.2,31.3,11.8,0000.0,0021.22,0004.01,0002.69
2022-05-18 20:17:00,,0824.8,5.01,0.00,29.4,28.5,00.0,38.2,31.4,12.1,0000.0,0021.12,0003.97,0002.64
2022-05-18 20:18:00,,0824.6,4.99,0.00,29.5,28.6,00.0,38.2,31.5,11.7,0000.0,0021.15,0003.95,0002.57
2022-05-18 20:19:00,,0824.6,5.00,0.00,29.5,28.7,00.0,38.3,31.5,11.4,0000.0,0021.07,0003.89,0002.50
2022-05-18 20:20:00,,0824.5,5.00,0.00,29.5,28.4,00.0,38.2,31.4,12.5,0000.0,0022.08,0003.87,0002.45
2022-05-18 20:21:00,,0824.5,4.99,0.00,29.5,27.6,00.0,38.2,31.1,14.5,0000.0,0022.20,0003.92,0002.43
2022-05-18 20:22:00,,0824.4,5.00,0.00,29.4,27.2,00.0,38.2,31.0,16.2,0000.0,0021.91,0003.98,0002.45
2022-05-18 20:23:00,,0824.4,5.00,0.00,29.3,27.2,00.0,38.2,31.0,16.1,0000.0,0021.77,0003.99,0002.47
2022-05-18 20:24:00,,0824.5,4.99,0.00,29.3,27.3,00.0,38.2,31.0,15.9,0000.0,0014.26,0003.86,0002.48
2022-05-18 20:25:00,,0824.4,4.99,0.00,29.3,27.5,00.0,38.2,31.1,16.0,0000.0,0009.53,0003.80,0002.51
2022-05-18 20:26:00,,0824.4,5.00,0.00,29.3,27.7,00.0,38.2,31.1,16.3,0000.0,0009.44,0003.84,0002.56
2022-05-18 20:27:00,,0824.6,5.00,0.00,29.3,27.8,00.0,38.2,31.2,16.2,0000.0,0009.96,0003.87,0002.60
2022-05-18 20:28:00,,0824.4,5.01,0.00,29.3,28.0,00.0,38.2,31.2,16.2,0000.0,0010.03,0003.91,0002.65
2022-05-18 20:29:00,,0824.9,5.00,0.00,29.4,28.2,00.0,38.2,31.3,16.1,0000.0,0010.01,0003.93,0002.67
2022-05-18 20:30:00,,0824.7,5.00,0.00,29.4,28.4,00.0,38.2,31.4,16.0,0000.0,0010.09,0003.97,0002.70
2022-05-18 20:31:00,,0824.7,4.99,0.00,29.5,28.5,00.0,38.2,31.4,15.8,0000.0,0009.66,0003.97,0002.72
2022-05-18 20:32:00,,0824.6,5.00,0.00,29.5,28.6,00.0,38.3,31.5,15.8,0000.0,0010.17,0004.00,0002.71
2022-05-18 20:33:00,,0824.6,5.01,0.00,29.5,28.7,00.0,38.3,31.5,15.3,0000.0,0010.01,0003.95,0002.69
2022-05-18 20:34:00,,0824.5,5.00,0.00,29.6,28.7,00.0,38.3,31.5,14.8,0000.0,0010.27,0003.93,0002.65
2022-05-18 20:35:00,,0824.6,5.01,0.00,29.5,27.9,00.0,38.2,31.3,12.4,0000.0,0010.44,0003.89,0002.63
2022-05-18 20:36:00,,0824.6,5.00,0.00,29.4,27.2,00.0,38.2,31.1,11.5,0000.0,0010.48,0003.89,0002.57
2022-05-18 20:37:00,,0824.5,5.00,0.00,29.4,27.1,00.0,38.2,31.0,10.6,0000.0,0010.39,0003.84,0002.49
2022-05-18 20:38:00,,0824.4,5.00,0.00,29.3,27.2,00.0,38.2,31.0,09.4,0000.0,0010.30,0003.79,0002.41
2022-05-18 20:39:00,,0824.5,5.00,0.00,29.3,27.4,00.0,38.2,31.1,09.3,0000.0,0010.23,0003.72,0002.32
2022-05-18 20:40:00,,0824.5,5.01,0.00,29.3,27.6,00.0,38.2,31.1,09.5,0000.0,0010.23,0003.70,0002.28
2022-05-18 20:41:00,,0824.4,4.99,0.00,29.3,27.8,00.0,38.2,31.2,09.3,0000.0,0010.15,0003.66,0002.23
2022-05-18 20:42:00,,0824.5,5.01,0.00,29.4,28.0,00.0,38.2,31.3,09.5,0000.0,0009.69,0003.64,0002.19
2022-05-18 20:43:00,,0824.4,4.99,0.00,29.4,28.2,00.0,38.2,31.3,09.9,0000.0,0008.90,0003.61,0002.13
2022-05-18 20:44:00,,0824.4,5.00,0.00,29.4,28.3,00.0,38.2,31.4,10.1,0000.0,0008.80,0003.54,0002.06
2022-05-18 20:45:00,,0824.3,5.01,0.00,29.5,28.5,00.0,38.2,31.4,09.6,0000.0,0008.34,0003.50,0002.00
2022-05-18 20:46:00,,0824.4,4.99,0.00,29.5,28.6,00.0,38.3,31.5,11.4,0000.0,0008.14,0003.52,0001.96
2022-05-18 20:47:00,,0824.5,5.01,0.00,29.5,28.7,00.0,38.3,31.5,12.9,0000.0,0008.05,0003.50,0001.96
2022-05-18 20:48:00,,0824.4,5.01,0.00,29.6,28.6,00.0,38.3,31.5,11.8,0000.0,0007.98,0003.48,0001.97
2022-05-18 20:49:00,,0824.4,4.99,0.00,29.5,27.8,00.0,38.2,31.3,08.8,0000.0,0007.65,0003.48,0001.98
2022-05-18 20:50:00,,0824.3,5.00,0.00,29.4,27.2,00.0,38.2,31.1,08.5,0000.0,0007.53,0003.46,0001.97
2022-05-18 20:51:00,,0824.3,5.01,0.00,29.4,27.1,00.0,38.2,31.0,08.1,0000.0,0008.07,0003.46,0001.94
2022-05-18 20:52:00,,0824.4,5.00,0.00,29.3,27.3,00.0,38.2,31.1,08.4,0000.0,0008.13,0003.46,0001.94
2022-05-18 20:53:00,,0824.4,5.00,0.00,29.3,27.4,00.0,38.2,31.1,08.8,0000.0,0008.57,0003.49,0001.93
2022-05-18 20:54:00,,0824.4,4.98,0.00,29.3,27.6,00.0,38.2,31.2,08.4,0000.0,0008.74,0003.44,0001.93
2022-05-18 20:55:00,,0824.4,5.00,0.00,29.3,27.9,00.0,38.2,31.2,08.3,0000.0,0008.67,0003.43,0001.93
2022-05-18 20:56:00,,0824.3,5.00,0.00,29.4,28.0,00.0,38.2,31.3,09.1,0000.0,0008.63,0003.40,0001.92
2022-05-18 20:57:00,,0824.3,5.00,0.00,29.4,28.2,00.0,38.2,31.3,08.8,0000.0,0008.54,0003.36,0001.92
2022-05-18 20:58:00,,0824.3,4.99,0.00,29.4,28.4,00.0,38.2,31.4,08.6,0000.0,0008.66,0003.38,0001.89
2022-05-18 20:59:00,,0824.3,5.01,0.00,29.5,28.5,00.0,38.2,31.4,09.0,0000.0,0008.76,0003.41,0001.87
